Date,TemperatureHighF,TemperatureAvgF,TemperatureLowF,DewpointHighF,DewpointAvgF,DewpointLowF,HumidityHigh,HumidityAvg,HumidityLow,PressureMaxIn,PressureMinIn,WindSpeedMaxMPH,WindSpeedAvgMPH,GustSpeedMaxMPH,PrecipitationSumIn
2013-5-1,70.7,55.4,37.5,63.5,49.8,34.9,95,82,62,30.18,29.62,27,7,0,0.00
2013-5-2,49.8,39.6,33.7,36.6,33.1,26.1,96,80,41,30.43,30.14,24,9,0,0.04
2013-5-3,57.8,44.4,31.3,39.3,32.7,28.7,91,67,37,30.35,29.95,14,2,0,0.00
2013-5-4,50.0,42.6,35.5,41.2,35.6,29.4,91,76,64,30.06,29.87,20,6,0,0.00
2013-5-5,63.4,49.8,41.9,53.3,45.5,40.0,97,86,63,30.12,30.00,15,2,0,0.00
2013-5-6,68.1,53.2,41.7,56.2,48.7,40.9,98,86,60,30.08,29.94,10,2,0,0.00
2013-5-7,71.8,60.0,47.1,59.1,52.5,45.7,98,78,56,29.99,29.80,13,2,0,0.00
2013-5-8,77.8,64.6,56.4,66.4,57.8,50.4,95,80,59,29.91,29.64,15,4,0,0.48
2013-5-9,74.8,63.7,53.8,65.1,57.2,52.6,97,81,58,29.90,29.66,14,1,0,0.10
2013-5-10,69.5,59.0,50.2,57.7,52.9,48.5,97,82,54,30.00,29.88,14,3,0,0.00
2013-5-11,67.2,56.2,42.0,53.2,44.7,37.0,98,70,35,30.18,30.00,26,4,0,0.00
2013-5-12,70.0,54.9,40.2,48.7,42.2,35.8,91,65,40,30.20,29.98,13,2,0,0.01
2013-5-13,83.5,66.0,45.8,61.8,53.1,42.4,89,65,40,30.01,29.83,9,2,0,0.00
2013-5-14,88.7,73.9,59.8,62.4,54.2,46.9,74,52,26,29.83,29.68,16,4,0,0.00
2013-5-15,81.4,68.4,60.5,66.4,59.7,54.9,93,74,55,29.75,29.67,13,3,0,0.00
2013-5-16,77.0,67.2,58.0,64.7,61.2,56.3,98,82,58,29.75,29.67,11,1,0,0.00
2013-5-17,81.4,69.1,56.0,67.4,62.4,54.9,98,81,58,29.79,29.70,10,2,0,0.00
2013-5-18,84.1,74.5,65.9,74.5,69.2,59.0,95,84,57,29.74,29.47,15,3,0,0.00
2013-5-19,81.1,68.2,60.8,72.0,63.3,57.8,96,85,67,29.65,29.36,16,3,0,1.28
2013-5-20,80.5,67.2,53.9,65.6,58.1,52.5,96,75,49,29.69,29.51,8,1,0,0.00
2013-5-21,75.5,62.8,51.4,55.9,51.4,47.5,90,69,40,29.75,29.62,8,1,0,0.00
2013-5-22,79.0,62.9,48.5,59.7,52.9,46.8,94,72,42,29.84,29.70,9,1,0,0.00
2013-5-23,72.5,61.4,52.9,60.5,54.7,50.3,93,79,59,30.06,29.84,15,2,0,0.00
2013-5-24,76.8,66.5,56.1,68.6,60.7,53.2,91,82,72,30.10,29.93,13,3,0,0.00
2013-5-25,81.7,72.6,64.4,68.9,65.7,62.6,95,80,61,29.98,29.81,14,4,0,0.00
2013-5-26,81.7,72.4,64.7,71.8,67.2,62.6,94,84,69,29.87,29.71,18,5,0,0.00
2013-5-27,81.5,74.8,70.0,72.4,69.4,67.5,94,84,70,29.70,29.46,20,6,0,0.00
2013-5-28,85.5,75.5,69.8,75.0,69.5,66.5,93,82,67,29.60,29.44,19,5,0,0.00
2013-5-29,79.4,71.5,61.2,70.2,66.4,59.0,94,84,71,29.58,29.39,19,7,0,0.05
2013-5-30,80.2,67.5,57.4,67.8,61.5,56.8,98,83,55,29.62,29.39,20,2,0,1.72
2013-5-31,80.8,71.8,63.0,69.3,65.8,58.5,98,83,54,29.63,29.49,12,1,0,0.00